Location: *
(43.0167°S, 179.9000°E)
Time: 20:07:09
(UTC+00:00)

Cosmos 1140 Rocket - Pass Details

Date: 12 August 2024
Orbit: 741 x 765 km, 74.1° (Epoch: 19 September)

Event Time Altitude Azimuth Distance (km) Brightness Sun altitude
Rises 17:48:25 0° 197° (SSW) 3,252 6.5 -13.0°
Reaches altitude 10° 17:50:53 10° 191° (S) 2,315 5.8 -12.5°
Maximum altitude 17:56:00 52° 114° (ESE) 943 4.3 -11.6°
Drops below altitude 10° 18:01:02 10° 38° (NE) 2,272 6.7 -10.7°
Sets 18:03:26 0° 32° (NNE) 3,185 7.4 -10.3°
